This demonstration page uses our WeatherBlox Daily Observations layout. Learn more.

Hourly Observations for October 24, 2020

Temp ( °F °C ) Dew Point ( °F °C ) Humidity (%) Winds ( mph kmh ) Pressure ( in mb ) Visibility ( mi km ) Precip ( " mm )
12:54 am 00:54 Mostly Cloudy 25 -3.9 21 -6.1 85 85 Calm 30.44 1031 10 16.0934 0 0
1:54 am 01:54 Mostly Clear 23 -5 19 -7.2 85 85 Calm 30.44 1031 10 16.0934 0 0
2:54 am 02:54 Clear 21 -6.1 18 -7.8 88 88 N 6 9 30.42 1030 10 16.0934 0 0
3:54 am 03:54 Mostly Clear 22 -5.6 18 -7.8 85 85 N 6 9 30.4 1030 10 16.0934 0 0
4:54 am 04:54 Mostly Clear 22 -5.6 18 -7.8 85 85 N 3 6 30.39 1029 10 16.0934 0 0
5:54 am 05:54 Clear 22 -5.6 18 -7.8 85 85 N 3 6 30.36 1028 10 16.0934 0 0
6:13 am 06:13 Mostly Cloudy 24 -4.4 19 -7.2 81 81 NNW 5 7 30.4 1030 10 16.0934 0 0
6:54 am 06:54 Mostly Clear 24 -4.4 19 -7.2 81 81 Calm 30.35 1028 10 16.0934 0 0
7:37 am 07:37 Mostly Cloudy 21 -6.1 17 -8.3 85 85 N 3 6 30.4 1030 10 16.0934 0 0
7:54 am 07:54 Partly Cloudy 20 -6.7 16 -8.9 85 85 N 3 6 30.35 1028 10 16.0934 0 0
8:54 am 08:54 Cloudy 24 -4.4 19 -7.2 81 81 NNE 5 7 30.35 1028 8 12.87472 0 0
9:19 am 09:19 Cloudy 25 -3.9 20 -6.7 81 81 N 3 6 30.39 1029 8 12.87472 0 0
9:54 am 09:54 Cloudy 27 -2.8 22 -5.6 81 81 ESE 3 6 30.35 1028 9 14.48406 0 0
10:54 am 10:54 Cloudy 30 -1.1 23 -5 75 75 E 7 11 30.34 1028 10 16.0934 0 0
11:54 am 11:54 Cloudy 32 0 23 -5 69 69 E 6 9 30.32 1027 10 16.0934 0 0
12:54 pm 12:54 Cloudy 33 0.6 23 -5 66 66 ESE 8 13 30.29 1026 9 14.48406 0 0
1:54 pm 13:54 Cloudy 34 1.1 23 -5 64 64 Calm 30.25 1024 10 16.0934 0 0
2:54 pm 14:54 Cloudy 35 1.7 24 -4.4 64 64 E 9 15 30.23 1024 10 16.0934 0 0
3:54 pm 15:54 Cloudy 35 1.7 24 -4.4 64 64 E 9 15 30.21 1023 10 16.0934 0 0
4:54 pm 16:54 Cloudy 34 1.1 24 -4.4 67 67 ENE 8 13 30.22 1023 10 16.0934 0 0
5:54 pm 17:54 Cloudy 34 1.1 24 -4.4 67 67 E 9 15 30.22 1023 10 16.0934 0 0
6:54 pm 18:54 Cloudy 33 0.6 24 -4.4 70 70 E 7 11 30.23 1024 10 16.0934 0 0
7:54 pm 19:54 Cloudy 34 1.1 24 -4.4 67 67 E 8 13 30.22 1023 10 16.0934 0 0
8:54 pm 20:54 Cloudy 34 1.1 24 -4.4 67 67 NE 7 11 30.23 1024 10 16.0934 0 0
9:54 pm 21:54 Cloudy 34 1.1 25 -3.9 70 70 NE 6 9 30.25 1024 10 16.0934 0 0
10:54 pm 22:54 Cloudy 34 1.1 25 -3.9 70 70 NE 9 15 30.25 1024 10 16.0934 0 0
11:54 pm 23:54 Cloudy 34 1.1 25 -3.9 70 70 NE 9 15 30.26 1025 10 16.0934 0 0

Powered by AerisWeather